RADIO ROSTO (RS-15)

Last updated on Sat Feb 08 2025 00:03:03 GMT+0000 (Coordinated Universal Time)

1 23439U 94085A 25037.87527965 -.00000031 00000+0 33070-3 0 9993 2 23439 64.8190 24.2365 0145467 98.3456 263.3989 11.27579863240055
UTC large
Height (km)
Speed (km/s)
/
Latitude / Longitude
Inclination (degrees)
Orbital Period (minutes)
Azimuth
Elevation
Range (km)
Doppler Factor

Next 0 passes for location: London (51.5072 / 0.1276)

Sorry there are no passes over London.